JST701 YMML-YMHB

Flight info

Callsign JST701
Flight time 1h 1m
Altitude 39000
Route SUNTI H169 IRSOM V33 MORGO
Aircraft A320/M-SDE3FGHIRWY/LB1

Departure

Time 2026-04-30 20:51
Airport Melbourne Airport (YMML)

Arrival

Time 2026-04-30 21:53
Airport Hobart International Airport (YMHB)
Time Latitude Longitude Altitude Speed Heading
2026-04-30 20:31 -37.67529 144.84791 380 ft 0 kts 171°
2026-04-30 20:42 -37.67528 144.84791 379 ft 2 kts 171°
2026-04-30 20:43 -37.67503 144.84786 380 ft 3 kts 171°
2026-04-30 20:43 -37.67481 144.84782 381 ft 4 kts 166°
2026-04-30 20:43 -37.67460 144.84768 381 ft 3 kts 122°
2026-04-30 20:44 -37.67433 144.84756 382 ft 4 kts 261°
2026-04-30 20:44 -37.67429 144.84788 382 ft 2 kts 262°
2026-04-30 20:44 -37.67429 144.84790 382 ft 5 kts 262°
2026-04-30 20:47 -37.67433 144.84755 382 ft 8 kts 262°
2026-04-30 20:47 -37.67444 144.84654 381 ft 15 kts 262°
2026-04-30 20:48 -37.67478 144.84372 377 ft 13 kts 261°
2026-04-30 20:48 -37.67492 144.84255 374 ft 15 kts 262°
2026-04-30 20:48 -37.67529 144.84135 370 ft 16 kts 206°
2026-04-30 20:48 -37.67649 144.84143 368 ft 20 kts 170°
2026-04-30 20:49 -37.67772 144.84167 363 ft 12 kts 172°
2026-04-30 20:49 -37.67828 144.84176 361 ft 6 kts 180°
2026-04-30 20:49 -37.67875 144.84132 361 ft 11 kts 248°
2026-04-30 20:50 -37.67875 144.83968 362 ft 6 kts 336°
2026-04-30 20:50 -37.67862 144.83964 356 ft 0 kts 352°
2026-04-30 20:50 -37.67849 144.83962 358 ft 15 kts 353°
2026-04-30 20:50 -37.67474 144.83894 370 ft 87 kts 350°
2026-04-30 20:51 -37.66700 144.83751 399 ft 135 kts 351°
2026-04-30 20:51 -37.64706 144.83353 1535 ft 145 kts 353°
2026-04-30 20:51 -37.63714 144.83165 2269 ft 146 kts 354°
2026-04-30 20:52 -37.62642 144.82965 2663 ft 166 kts 353°
2026-04-30 20:52 -37.61408 144.82733 2994 ft 191 kts 352°
2026-04-30 20:52 -37.58465 144.82710 4112 ft 233 kts 17°
2026-04-30 20:53 -37.56966 144.83588 5014 ft 240 kts 21°
2026-04-30 20:53 -37.55963 144.84201 5633 ft 244 kts 21°
2026-04-30 20:53 -37.54417 144.85147 6503 ft 250 kts 21°
2026-04-30 20:54 -37.51225 144.87107 8177 ft 261 kts 22°
2026-04-30 20:54 -37.49569 144.88123 8995 ft 268 kts 22°
2026-04-30 20:54 -37.47894 144.89216 9811 ft 276 kts 31°
2026-04-30 20:55 -37.46266 144.93700 11009 ft 320 kts 91°
2026-04-30 20:55 -37.46991 144.96446 11303 ft 345 kts 123°
2026-04-30 20:55 -37.48747 144.98538 11872 ft 355 kts 151°
2026-04-30 20:56 -37.53537 144.99876 13292 ft 359 kts 181°
2026-04-30 20:56 -37.56045 144.99888 14048 ft 362 kts 183°
2026-04-30 20:56 -37.61119 144.99960 15351 ft 369 kts 179°
2026-04-30 20:57 -37.63695 145.00182 15980 ft 372 kts 176°
2026-04-30 20:57 -37.66292 145.00516 16578 ft 377 kts 174°
2026-04-30 20:57 -37.68915 145.00920 17164 ft 382 kts 174°
2026-04-30 20:58 -37.74257 145.01176 18327 ft 388 kts 188°
2026-04-30 20:58 -37.76958 145.00810 18885 ft 392 kts 188°
2026-04-30 20:58 -37.79681 145.00408 19431 ft 396 kts 189°
2026-04-30 20:58 -37.82422 144.99984 20027 ft 398 kts 189°
2026-04-30 20:59 -37.87944 144.99125 21194 ft 402 kts 189°
2026-04-30 20:59 -37.90734 144.98698 21742 ft 405 kts 189°
2026-04-30 21:00 -37.96380 144.98078 22781 ft 412 kts 180°
2026-04-30 21:00 -38.02033 144.99591 23792 ft 421 kts 162°
2026-04-30 21:01 -38.07606 145.02072 24636 ft 427 kts 161°
2026-04-30 21:01 -38.10413 145.03319 25052 ft 430 kts 161°
2026-04-30 21:01 -38.16093 145.05847 25875 ft 435 kts 162°
2026-04-30 21:02 -38.18955 145.07117 26296 ft 437 kts 162°
2026-04-30 21:02 -38.21835 145.08396 26713 ft 440 kts 162°
2026-04-30 21:02 -38.24732 145.09686 27109 ft 443 kts 162°
2026-04-30 21:02 -38.27647 145.10985 27513 ft 445 kts 162°
2026-04-30 21:03 -38.30577 145.12290 27915 ft 447 kts 162°
2026-04-30 21:03 -38.33527 145.13605 28318 ft 450 kts 162°
2026-04-30 21:03 -38.36480 145.14925 28730 ft 452 kts 162°
2026-04-30 21:03 -38.39459 145.16261 29126 ft 454 kts 162°
2026-04-30 21:04 -38.42403 145.17584 29511 ft 457 kts 162°
2026-04-30 21:04 -38.45412 145.18939 29935 ft 459 kts 162°
2026-04-30 21:04 -38.51450 145.21656 30716 ft 462 kts 162°
2026-04-30 21:05 -38.54493 145.23010 31051 ft 464 kts 162°
2026-04-30 21:05 -38.57553 145.24354 31378 ft 466 kts 163°
2026-04-30 21:05 -38.60630 145.25695 31700 ft 469 kts 163°
2026-04-30 21:05 -38.63722 145.27041 32114 ft 468 kts 163°
2026-04-30 21:06 -38.66800 145.28387 32578 ft 467 kts 163°
2026-04-30 21:06 -38.69870 145.29739 33036 ft 466 kts 163°
2026-04-30 21:06 -38.72936 145.31094 33490 ft 466 kts 163°
2026-04-30 21:06 -38.75994 145.32453 33946 ft 465 kts 163°
2026-04-30 21:07 -38.79047 145.33810 34388 ft 464 kts 163°
2026-04-30 21:07 -38.82102 145.35166 34781 ft 464 kts 163°
2026-04-30 21:07 -38.85142 145.36516 35141 ft 463 kts 163°
2026-04-30 21:07 -38.88194 145.37871 35483 ft 463 kts 163°
2026-04-30 21:08 -38.91242 145.39223 35816 ft 464 kts 163°
2026-04-30 21:08 -38.94296 145.40579 36126 ft 464 kts 164°
2026-04-30 21:08 -38.97352 145.41938 36448 ft 465 kts 164°
2026-04-30 21:08 -39.00406 145.43295 36766 ft 464 kts 164°
2026-04-30 21:09 -39.03460 145.44653 37078 ft 464 kts 164°
2026-04-30 21:09 -39.06516 145.46017 37259 ft 465 kts 164°
2026-04-30 21:09 -39.12586 145.48732 37284 ft 464 kts 164°
2026-04-30 21:10 -39.18684 145.51459 37282 ft 464 kts 164°
2026-04-30 21:10 -39.24788 145.54190 37281 ft 464 kts 164°
2026-04-30 21:11 -39.30880 145.56923 37280 ft 463 kts 164°
2026-04-30 21:11 -39.34160 145.58400 37288 ft 463 kts 164°
2026-04-30 21:12 -39.40248 145.61143 37298 ft 464 kts 164°
2026-04-30 21:12 -39.46341 145.63891 37291 ft 464 kts 164°
2026-04-30 21:13 -39.52441 145.66649 37302 ft 464 kts 164°
2026-04-30 21:13 -39.58537 145.69406 37303 ft 464 kts 164°
2026-04-30 21:14 -39.64642 145.72171 37297 ft 464 kts 164°
2026-04-30 21:14 -39.70706 145.74926 37296 ft 464 kts 164°
2026-04-30 21:15 -39.76800 145.77697 37301 ft 464 kts 164°
2026-04-30 21:15 -39.82891 145.80482 37313 ft 464 kts 164°
2026-04-30 21:16 -39.88987 145.83274 37308 ft 465 kts 164°
2026-04-30 21:16 -39.95083 145.86078 37292 ft 465 kts 164°
2026-04-30 21:17 -40.01187 145.88873 37312 ft 465 kts 164°
2026-04-30 21:17 -40.07290 145.91690 37303 ft 465 kts 164°
2026-04-30 21:18 -40.13394 145.94521 37302 ft 466 kts 164°
2026-04-30 21:18 -40.19504 145.97365 37300 ft 466 kts 164°
2026-04-30 21:19 -40.25610 146.00209 37302 ft 466 kts 164°
2026-04-30 21:19 -40.31721 146.03058 37296 ft 467 kts 164°
2026-04-30 21:20 -40.37799 146.05895 37291 ft 467 kts 164°
2026-04-30 21:20 -40.43926 146.08758 37295 ft 467 kts 164°
2026-04-30 21:21 -40.50048 146.11639 37305 ft 468 kts 164°
2026-04-30 21:22 -40.59254 146.15960 37297 ft 469 kts 164°
2026-04-30 21:23 -40.71559 146.21775 36872 ft 474 kts 164°
2026-04-30 21:23 -40.74655 146.23240 36361 ft 472 kts 164°
2026-04-30 21:23 -40.80805 146.26149 35378 ft 467 kts 163°
2026-04-30 21:24 -40.83859 146.27593 34901 ft 465 kts 163°
2026-04-30 21:24 -40.86904 146.29036 34430 ft 463 kts 163°
2026-04-30 21:24 -40.89928 146.30473 33911 ft 461 kts 163°
2026-04-30 21:24 -40.92936 146.31908 33390 ft 459 kts 163°
2026-04-30 21:25 -40.98902 146.34756 32355 ft 453 kts 163°
2026-04-30 21:25 -41.02060 146.36265 31822 ft 450 kts 163°
2026-04-30 21:25 -41.04996 146.37668 31332 ft 447 kts 163°
2026-04-30 21:26 -41.10808 146.40457 30434 ft 441 kts 163°
2026-04-30 21:26 -41.13679 146.41834 29939 ft 437 kts 163°
2026-04-30 21:27 -41.19251 146.44844 29211 ft 427 kts 157°
2026-04-30 21:27 -41.21918 146.46529 28934 ft 421 kts 157°
2026-04-30 21:27 -41.24557 146.48190 28672 ft 418 kts 157°
2026-04-30 21:28 -41.29795 146.51478 28143 ft 414 kts 157°
2026-04-30 21:28 -41.32394 146.53113 27885 ft 412 kts 157°
2026-04-30 21:28 -41.37553 146.56369 27380 ft 408 kts 157°
2026-04-30 21:29 -41.40117 146.57996 27126 ft 407 kts 157°
2026-04-30 21:29 -41.47725 146.62831 26391 ft 401 kts 157°
2026-04-30 21:30 -41.52714 146.66006 25899 ft 398 kts 157°
2026-04-30 21:31 -41.60169 146.70751 25185 ft 393 kts 157°
2026-04-30 21:31 -41.65085 146.73887 24712 ft 390 kts 157°
2026-04-30 21:32 -41.69958 146.77017 24242 ft 387 kts 157°
2026-04-30 21:32 -41.72375 146.78580 24021 ft 385 kts 156°
2026-04-30 21:32 -41.74779 146.80142 23774 ft 383 kts 156°
2026-04-30 21:32 -41.77180 146.81702 23490 ft 383 kts 156°
2026-04-30 21:33 -41.78770 146.82733 23318 ft 383 kts 156°
2026-04-30 21:33 -41.83523 146.85809 22685 ft 376 kts 156°
2026-04-30 21:33 -41.85873 146.87333 22263 ft 374 kts 156°
2026-04-30 21:34 -41.88204 146.88849 21858 ft 371 kts 156°
2026-04-30 21:34 -41.92822 146.91855 21017 ft 367 kts 156°
2026-04-30 21:34 -41.95123 146.93350 20602 ft 366 kts 156°
2026-04-30 21:35 -41.97420 146.94842 20195 ft 365 kts 156°
2026-04-30 21:35 -41.99703 146.96330 19781 ft 364 kts 156°
2026-04-30 21:35 -42.01979 146.97819 19359 ft 364 kts 156°
2026-04-30 21:35 -42.04227 146.99290 18951 ft 363 kts 156°
2026-04-30 21:36 -42.06498 147.00780 18529 ft 363 kts 155°
2026-04-30 21:36 -42.08766 147.02268 18088 ft 362 kts 156°
2026-04-30 21:37 -42.15502 147.06678 16849 ft 356 kts 156°
2026-04-30 21:37 -42.17619 147.08402 16477 ft 356 kts 143°
2026-04-30 21:37 -42.19474 147.10605 16055 ft 355 kts 138°
2026-04-30 21:37 -42.21287 147.12858 15653 ft 354 kts 138°
2026-04-30 21:38 -42.23096 147.15107 15258 ft 353 kts 138°
2026-04-30 21:38 -42.24904 147.17352 14849 ft 352 kts 139°
2026-04-30 21:38 -42.26706 147.19588 14442 ft 351 kts 139°
2026-04-30 21:38 -42.28499 147.21811 14041 ft 350 kts 139°
2026-04-30 21:39 -42.30289 147.24031 13610 ft 349 kts 139°
2026-04-30 21:39 -42.32145 147.26116 13215 ft 344 kts 148°
2026-04-30 21:39 -42.34200 147.27710 12929 ft 338 kts 154°
2026-04-30 21:39 -42.36216 147.29209 12641 ft 333 kts 153°
2026-04-30 21:40 -42.38256 147.30732 12334 ft 329 kts 153°
2026-04-30 21:40 -42.40221 147.32203 12052 ft 325 kts 153°
2026-04-30 21:40 -42.42211 147.33695 11761 ft 321 kts 153°
2026-04-30 21:40 -42.44129 147.35133 11486 ft 318 kts 153°
2026-04-30 21:41 -42.46056 147.36580 11204 ft 315 kts 153°
2026-04-30 21:41 -42.47969 147.38018 10933 ft 314 kts 153°
2026-04-30 21:41 -42.49876 147.39454 10645 ft 314 kts 153°
2026-04-30 21:41 -42.51799 147.40898 10188 ft 318 kts 153°
2026-04-30 21:42 -42.53712 147.42335 9923 ft 312 kts 153°
2026-04-30 21:42 -42.55617 147.43764 9547 ft 311 kts 153°
2026-04-30 21:42 -42.57500 147.45182 9249 ft 308 kts 153°
2026-04-30 21:42 -42.59330 147.46668 8977 ft 306 kts 145°
2026-04-30 21:43 -42.60976 147.48500 8704 ft 305 kts 141°
2026-04-30 21:43 -42.62598 147.50348 8431 ft 304 kts 141°
2026-04-30 21:43 -42.64219 147.52189 8159 ft 303 kts 141°
2026-04-30 21:43 -42.65837 147.54030 7891 ft 304 kts 142°
2026-04-30 21:44 -42.67456 147.55874 7620 ft 302 kts 142°
2026-04-30 21:44 -42.69066 147.57709 7354 ft 302 kts 141°
2026-04-30 21:44 -42.70674 147.59541 7085 ft 301 kts 142°
2026-04-30 21:44 -42.72276 147.61370 6806 ft 301 kts 142°
2026-04-30 21:45 -42.73865 147.63184 6434 ft 302 kts 142°
2026-04-30 21:45 -42.75471 147.65019 6049 ft 299 kts 142°
2026-04-30 21:45 -42.77036 147.66808 5678 ft 289 kts 141°
2026-04-30 21:45 -42.78553 147.68543 5317 ft 281 kts 141°
2026-04-30 21:46 -42.80033 147.70238 4939 ft 275 kts 141°
2026-04-30 21:46 -42.81477 147.71892 4565 ft 268 kts 141°
2026-04-30 21:46 -42.82887 147.73507 4193 ft 262 kts 140°
2026-04-30 21:46 -42.84310 147.74998 3972 ft 253 kts 153°
2026-04-30 21:47 -42.85895 147.75820 3910 ft 238 kts 175°
2026-04-30 21:47 -42.87492 147.75912 3779 ft 222 kts 195°
2026-04-30 21:47 -42.88926 147.75393 3614 ft 206 kts 213°
2026-04-30 21:47 -42.90191 147.74545 3319 ft 202 kts 216°
2026-04-30 21:48 -42.91441 147.73675 2926 ft 201 kts 221°
2026-04-30 21:48 -42.92392 147.72400 2555 ft 185 kts 249°
2026-04-30 21:48 -42.92803 147.70818 2209 ft 173 kts 272°
2026-04-30 21:48 -42.92821 147.69200 2002 ft 172 kts 279°
2026-04-30 21:49 -42.92818 147.67555 1991 ft 175 kts 278°
2026-04-30 21:49 -42.92816 147.65892 1993 ft 176 kts 278°
2026-04-30 21:49 -42.92770 147.64235 1988 ft 171 kts 290°
2026-04-30 21:49 -42.92228 147.62871 1993 ft 162 kts 317°
2026-04-30 21:50 -42.91423 147.61783 1902 ft 162 kts 318°
2026-04-30 21:50 -42.90646 147.60726 1706 ft 152 kts 319°
2026-04-30 21:50 -42.89936 147.59757 1497 ft 138 kts 319°
2026-04-30 21:50 -42.89268 147.58846 1325 ft 133 kts 319°
2026-04-30 21:51 -42.88623 147.57969 1137 ft 131 kts 318°
2026-04-30 21:51 -42.87974 147.57090 966 ft 131 kts 319°
2026-04-30 21:51 -42.87337 147.56224 799 ft 128 kts 319°
2026-04-30 21:51 -42.86704 147.55365 628 ft 129 kts 318°
2026-04-30 21:52 -42.86075 147.54514 462 ft 128 kts 318°
2026-04-30 21:52 -42.85443 147.53660 299 ft 128 kts 317°
2026-04-30 21:52 -42.84824 147.52818 141 ft 126 kts 316°
2026-04-30 21:52 -42.84207 147.51978 33 ft 119 kts 316°
2026-04-30 21:53 -42.83741 147.51354 24 ft 55 kts 315°
2026-04-30 21:53 -42.83580 147.51138 22 ft 30 kts 316°
2026-04-30 21:53 -42.83416 147.50922 22 ft 34 kts 316°
2026-04-30 21:53 -42.83310 147.50683 22 ft 28 kts 265°
2026-04-30 21:54 -42.83393 147.50570 23 ft 15 kts 211°
2026-04-30 21:54 -42.83482 147.50626 23 ft 16 kts 134°
2026-04-30 21:54 -42.83549 147.50695 22 ft 9 kts 166°
2026-04-30 21:54 -42.83608 147.50666 24 ft 9 kts 189°
2026-04-30 21:55 -42.83661 147.50655 22 ft 0 kts 222°
2026-04-30 21:55 -42.83661 147.50654 25 ft 1 kts 223°
2026-04-30 21:55 -42.83663 147.50651 24 ft 0 kts 223°
2026-04-30 21:55 -42.83670 147.50642 22 ft 3 kts 226°
2026-04-30 21:56 -42.83681 147.50627 23 ft 0 kts 225°
2026-04-30 21:56 -42.83684 147.50622 22 ft 0 kts 225°